QPF
0.00 0.00 0.00 0.00 0.00 0.00 0.00 0.00 0.00 0.00 0.00 0.00 0.01 0.00 0.00 0.00 0.00 0.00 0.00 0.00 0.00 0.00 0.00 0.00 0.00 0.01 0.03 0.02 0.02 0.03 0.04 0.05 0.05 0.06 0.08 0.10 0.12 0.12 0.11 0.11 0.16 0.17 0.15 0.14
0.00 0.00 0.00 0.00 0.00 0.00 0.00 0.00 0.00 0.00 0.00 0.00 0.01 0.00 0.00 0.00 0.00 0.00 0.00 0.00 0.00 0.00 0.00 0.00 0.00 0.00 0.02 0.04 0.05 0.05 0.06 0.06 0.04 0.05 0.06 0.09 0.11 0.10 0.09 0.09 0.13 0.17 0.18 0.17
0.00 0.00 0.00 0.00 0.00 0.00 0.00 0.00 0.00 0.00 0.00 0.01 0.01 0.01 0.00 0.00 0.00 0.00 0.00 0.00 0.00 0.00 0.00 0.00 0.01 0.01 0.02 0.03 0.05 0.06 0.08 0.11 0.08 0.05 0.05 0.07 0.09 0.11 0.11 0.09 0.12 0.18 0.20 0.20
0.00 0.00 0.00 0.00 0.00 0.00 0.00 0.00 0.00 0.00 0.01 0.01 0.02 0.03 0.02 0.01 0.00 0.00 0.00 0.00 0.00 0.00 0.00 0.01 0.01 0.02 0.03 0.04 0.05 0.05 0.05 0.07 0.10 0.10 0.07 0.07 0.07 0.08 0.11 0.11 0.11 0.15 0.19 0.21
0.00 0.00 0.00 0.00 0.00 0.00 0.00 0.00 0.00 0.00 0.01 0.01 0.02 0.05 0.04 0.01 0.01 0.01 0.01 0.02 0.02 0.02 0.02 0.02 0.02 0.02 0.03 0.04 0.06 0.06 0.05 0.05 0.07 0.08 0.07 0.08 0.08 0.07 0.08 0.10 0.10 0.11 0.16 0.20
0.00 0.00 0.00 0.00 0.00 0.00 0.00 0.00 0.00 0.00 0.01 0.01 0.01 0.03 0.05 0.04 0.02 0.02 0.03 0.04 0.04 0.03 0.04 0.04 0.03 0.02 0.02 0.04 0.06 0.07 0.07 0.05 0.05 0.07 0.06 0.06 0.08 0.09 0.08 0.09 0.11 0.11 0.13 0.15
0.00 0.00 0.00 0.00 0.00 0.00 0.00 0.01 0.01 0.01 0.01 0.01 0.00 0.01 0.04 0.05 0.02 0.01 0.01 0.03 0.03 0.03 0.03 0.03 0.03 0.03 0.03 0.05 0.06 0.08 0.08 0.07 0.06 0.06 0.06 0.06 0.08 0.09 0.08 0.07 0.09 0.11 0.12 0.12
0.00 0.00 0.00 0.00 0.00 0.00 0.00 0.01 0.01 0.01 0.01 0.01 0.01 0.01 0.03 0.04 0.03 0.01 0.01 0.02 0.03 0.02 0.02 0.03 0.03 0.03 0.03 0.03 0.05 0.06 0.08 0.08 0.06 0.07 0.07 0.06 0.07 0.08 0.07 0.07 0.08 0.10 0.11 0.11
0.00 0.00 0.00 0.01 0.00 0.00 0.00 0.01 0.01 0.02 0.02 0.01 0.01 0.01 0.03 0.03 0.03 0.03 0.01 0.01 0.03 0.02 0.02 0.02 0.03 0.04 0.04 0.04 0.04 0.04 0.05 0.08 0.07 0.07 0.10 0.10 0.09 0.08 0.08 0.07 0.07 0.08 0.07 0.08
0.00 0.00 0.00 0.00 0.01 0.01 0.00 0.01 0.02 0.03 0.02 0.02 0.01 0.02 0.03 0.04 0.03 0.03 0.02 0.01 0.02 0.03 0.03 0.02 0.03 0.05 0.06 0.05 0.05 0.04 0.05 0.06 0.07 0.09 0.11 0.13 0.12 0.12 0.11 0.10 0.08 0.07 0.06 0.06
0.00 0.00 0.00 0.00 0.00 0.00 0.01 0.01 0.02 0.03 0.02 0.02 0.02 0.02 0.02 0.03 0.03 0.02 0.02 0.01 0.01 0.03 0.04 0.04 0.04 0.06 0.08 0.07 0.05 0.05 0.05 0.05 0.06 0.09 0.11 0.12 0.12 0.12 0.14 0.13 0.10 0.07 0.06 0.05
0.00 0.00 0.00 0.00 0.00 0.00 0.01 0.01 0.03 0.04 0.03 0.02 0.02 0.01 0.01 0.02 0.02 0.02 0.02 0.02 0.02 0.03 0.04 0.05 0.06 0.08 0.08 0.06 0.05 0.04 0.05 0.05 0.06 0.07 0.09 0.10 0.12 0.10 0.10 0.11 0.08 0.07 0.06 0.05
0.00 0.00 0.00 0.00 0.00 0.00 0.00 0.01 0.02 0.03 0.03 0.02 0.01 0.01 0.01 0.01 0.01 0.01 0.01 0.02 0.03 0.03 0.04 0.05 0.06 0.07 0.07 0.05 0.04 0.04 0.05 0.05 0.06 0.06 0.07 0.07 0.09 0.10 0.09 0.09 0.09 0.08 0.08 0.07
0.01 0.01 0.00 0.00 0.00 0.00 0.00 0.01 0.01 0.01 0.02 0.03 0.02 0.01 0.01 0.01 0.01 0.01 0.01 0.02 0.04 0.03 0.03 0.04 0.06 0.05 0.05 0.05 0.04 0.05 0.05 0.06 0.05 0.05 0.04 0.05 0.06 0.09 0.08 0.08 0.09 0.09 0.09 0.09
0.01 0.01 0.01 0.00 0.00 0.00 0.00 0.01 0.01 0.01 0.01 0.02 0.02 0.02 0.02 0.01 0.01 0.01 0.02 0.02 0.03 0.03 0.04 0.05 0.06 0.05 0.05 0.05 0.05 0.05 0.06 0.05 0.05 0.04 0.04 0.04 0.06 0.08 0.08 0.08 0.09 0.09 0.08 0.08
0.01 0.01 0.01 0.00 0.00 0.00 0.00 0.00 0.00 0.01 0.01 0.01 0.01 0.02 0.02 0.02 0.01 0.01 0.01 0.02 0.02 0.03 0.04 0.05 0.06 0.05 0.04 0.04 0.04 0.04 0.05 0.05 0.05 0.04 0.04 0.05 0.06 0.09 0.08 0.06 0.07 0.08 0.09 0.08
0.02 0.01 0.01 0.01 0.00 0.01 0.00 0.00 0.01 0.01 0.02 0.02 0.02 0.02 0.02 0.01 0.02 0.02 0.01 0.01 0.02 0.03 0.04 0.05 0.05 0.05 0.04 0.04 0.03 0.03 0.04 0.05 0.05 0.04 0.05 0.05 0.07 0.10 0.10 0.08 0.08 0.08 0.08 0.06
0.02 0.02 0.03 0.02 0.01 0.02 0.00 0.00 0.00 0.01 0.01 0.02 0.03 0.02 0.02 0.01 0.01 0.01 0.01 0.01 0.02 0.03 0.04 0.04 0.04 0.04 0.04 0.04 0.03 0.04 0.04 0.05 0.04 0.05 0.06 0.06 0.07 0.08 0.10 0.10 0.09 0.07 0.06 0.06
0.02 0.03 0.05 0.04 0.02 0.01 0.00 0.00 0.00 0.00 0.00 0.01 0.01 0.01 0.01 0.01 0.01 0.01 0.01 0.02 0.02 0.02 0.03 0.03 0.03 0.03 0.04 0.04 0.03 0.03 0.03 0.04 0.04 0.06 0.07 0.07 0.06 0.06 0.08 0.10 0.10 0.09 0.07 0.06
0.02 0.04 0.07 0.06 0.03 0.01 0.00 0.00 0.00 0.00 0.00 0.00 0.00 0.00 0.00 0.00 0.00 0.01 0.01 0.01 0.01 0.02 0.02 0.02 0.02 0.02 0.03 0.03 0.03 0.03 0.03 0.03 0.04 0.05 0.07 0.07 0.06 0.05 0.06 0.08 0.09 0.08 0.07 0.06
0.03 0.06 0.08 0.06 0.04 0.01 0.00 0.00 0.00 0.00 0.00 0.00 0.00 0.00 0.00 0.00 0.00 0.00 0.01 0.00 0.01 0.01 0.01 0.01 0.02 0.03 0.03 0.03 0.03 0.03 0.03 0.04 0.04 0.04 0.06 0.06 0.07 0.07 0.07 0.07 0.06 0.06 0.06 0.06
0.01 0.02 0.03 0.03 0.04 0.01 0.00 0.00 0.00 0.00 0.00 0.00 0.00 0.00 0.00 0.00 0.00 0.00 0.00 0.00 0.00 0.01 0.01 0.01 0.02 0.03 0.03 0.02 0.02 0.02 0.03 0.04 0.03 0.03 0.04 0.06 0.07 0.07 0.07 0.06 0.05 0.05 0.06 0.06
0.01 0.01 0.01 0.01 0.01 0.00 0.00 0.00 0.00 0.00 0.00 0.00 0.00 0.00 0.00 0.00 0.00 0.00 0.00 0.00 0.00 0.00 0.01 0.01 0.01 0.03 0.03 0.02 0.02 0.02 0.03 0.03 0.03 0.03 0.04 0.05 0.06 0.07 0.07 0.07 0.06 0.06 0.06 0.07
0.02 0.02 0.02 0.01 0.00 0.00 0.00 0.00 0.00 0.00 0.00 0.00 0.00 0.00 0.00 0.00 0.00 0.00 0.00 0.00 0.00 0.00 0.01 0.01 0.01 0.02 0.03 0.02 0.02 0.02 0.02 0.02 0.02 0.02 0.03 0.04 0.04 0.05 0.05 0.05 0.06 0.07 0.07 0.07
0.03 0.03 0.03 0.02 0.01 0.01 0.00 0.00 0.00 0.00 0.00 0.00 0.00 0.00 0.00 0.00 0.00 0.00 0.00 0.00 0.00 0.00 0.01 0.01 0.01 0.01 0.02 0.02 0.02 0.02 0.01 0.01 0.01 0.01 0.02 0.03 0.03 0.04 0.04 0.05 0.05 0.06 0.07 0.07
0.02 0.03 0.03 0.03 0.01 0.01 0.02 0.01 0.01 0.01 0.01 0.00 0.00 0.00 0.00 0.00 0.00 0.00 0.00 0.00 0.01 0.00 0.01 0.01 0.01 0.01 0.01 0.02 0.02 0.02 0.02 0.01 0.01 0.01 0.02 0.02 0.03 0.03 0.04 0.05 0.04 0.05 0.06 0.06
MSLP
1010.58 1010.63 1010.65 1010.68 1010.75 1010.85 1011.00 1011.16 1011.32 1011.43 1011.48 1011.44 1011.32 1011.14 1010.93 1010.74 1010.60 1010.55 1010.59 1010.74 1010.98 1011.29 1011.65 1012.03 1012.41 1012.78 1013.13 1013.45 1013.74 1014.00 1014.20 1014.36 1014.46 1014.50 1014.48 1014.40 1014.28 1014.12 1013.93 1013.73 1013.50 1013.26 1013.02 1012.77
1010.55 1010.59 1010.63 1010.70 1010.81 1010.97 1011.16 1011.36 1011.53 1011.62 1011.63 1011.53 1011.35 1011.11 1010.86 1010.65 1010.52 1010.49 1010.58 1010.78 1011.06 1011.40 1011.76 1012.12 1012.47 1012.79 1013.08 1013.36 1013.62 1013.86 1014.08 1014.26 1014.41 1014.49 1014.51 1014.46 1014.34 1014.17 1013.95 1013.69 1013.42 1013.13 1012.84 1012.56
1010.49 1010.54 1010.62 1010.75 1010.93 1011.16 1011.42 1011.66 1011.83 1011.90 1011.85 1011.68 1011.42 1011.10 1010.79 1010.55 1010.41 1010.40 1010.53 1010.77 1011.10 1011.46 1011.84 1012.18 1012.49 1012.77 1013.01 1013.24 1013.46 1013.69 1013.92 1014.14 1014.32 1014.46 1014.52 1014.51 1014.42 1014.25 1014.01 1013.73 1013.41 1013.08 1012.74 1012.41
1010.39 1010.48 1010.61 1010.82 1011.09 1011.41 1011.74 1012.02 1012.20 1012.24 1012.13 1011.87 1011.50 1011.09 1010.71 1010.41 1010.25 1010.25 1010.40 1010.68 1011.04 1011.44 1011.83 1012.17 1012.46 1012.70 1012.91 1013.10 1013.30 1013.51 1013.75 1013.98 1014.21 1014.39 1014.50 1014.53 1014.47 1014.32 1014.09 1013.80 1013.46 1013.09 1012.71 1012.32
1010.25 1010.38 1010.59 1010.89 1011.26 1011.68 1012.08 1012.41 1012.59 1012.60 1012.41 1012.06 1011.59 1011.07 1010.59 1010.23 1010.03 1010.01 1010.18 1010.48 1010.88 1011.31 1011.72 1012.08 1012.37 1012.60 1012.78 1012.95 1013.13 1013.34 1013.57 1013.82 1014.07 1014.28 1014.43 1014.51 1014.48 1014.36 1014.15 1013.86 1013.51 1013.12 1012.69 1012.25
1010.08 1010.26 1010.55 1010.94 1011.42 1011.93 1012.41 1012.78 1012.96 1012.93 1012.68 1012.24 1011.66 1011.04 1010.46 1010.02 1009.76 1009.71 1009.86 1010.18 1010.60 1011.06 1011.50 1011.89 1012.20 1012.45 1012.65 1012.82 1013.00 1013.20 1013.44 1013.69 1013.94 1014.17 1014.34 1014.43 1014.44 1014.35 1014.16 1013.88 1013.53 1013.12 1012.66 1012.17
1009.88 1010.13 1010.49 1010.98 1011.55 1012.15 1012.69 1013.09 1013.28 1013.23 1012.92 1012.39 1011.72 1011.00 1010.33 1009.80 1009.47 1009.37 1009.49 1009.79 1010.21 1010.70 1011.18 1011.61 1011.98 1012.27 1012.51 1012.72 1012.92 1013.13 1013.37 1013.61 1013.85 1014.06 1014.23 1014.33 1014.34 1014.26 1014.09 1013.82 1013.48 1013.06 1012.58 1012.05
1009.67 1009.99 1010.44 1011.01 1011.66 1012.33 1012.92 1013.35 1013.54 1013.46 1013.10 1012.52 1011.77 1010.97 1010.21 1009.59 1009.18 1009.01 1009.08 1009.35 1009.76 1010.26 1010.78 1011.27 1011.71 1012.08 1012.39 1012.66 1012.91 1013.14 1013.38 1013.60 1013.82 1014.00 1014.14 1014.21 1014.21 1014.12 1013.95 1013.68 1013.34 1012.91 1012.42 1011.87
1009.48 1009.88 1010.41 1011.05 1011.77 1012.48 1013.11 1013.55 1013.73 1013.63 1013.24 1012.61 1011.81 1010.95 1010.12 1009.43 1008.94 1008.69 1008.69 1008.91 1009.29 1009.79 1010.34 1010.89 1011.40 1011.87 1012.28 1012.63 1012.94 1013.22 1013.46 1013.68 1013.85 1013.99 1014.07 1014.10 1014.05 1013.94 1013.75 1013.47 1013.12 1012.69 1012.19 1011.62
1009.34 1009.82 1010.43 1011.14 1011.90 1012.63 1013.26 1013.69 1013.85 1013.73 1013.31 1012.66 1011.83 1010.93 1010.06 1009.31 1008.76 1008.43 1008.36 1008.51 1008.85 1009.32 1009.89 1010.49 1011.09 1011.65 1012.16 1012.62 1013.01 1013.34 1013.60 1013.80 1013.94 1014.02 1014.04 1014.00 1013.90 1013.74 1013.52 1013.23 1012.86 1012.42 1011.90 1011.32
1009.26 1009.83 1010.51 1011.27 1012.05 1012.78 1013.37 1013.76 1013.89 1013.73 1013.30 1012.63 1011.80 1010.90 1010.01 1009.23 1008.63 1008.25 1008.10 1008.18 1008.47 1008.91 1009.48 1010.11 1010.77 1011.42 1012.03 1012.59 1013.06 1013.45 1013.74 1013.94 1014.05 1014.08 1014.04 1013.94 1013.78 1013.57 1013.30 1012.97 1012.58 1012.12 1011.58 1010.99
1009.24 1009.91 1010.66 1011.44 1012.21 1012.89 1013.43 1013.75 1013.81 1013.61 1013.15 1012.48 1011.67 1010.78 1009.92 1009.15 1008.53 1008.12 1007.92 1007.95 1008.17 1008.58 1009.13 1009.77 1010.48 1011.19 1011.88 1012.52 1013.07 1013.52 1013.84 1014.05 1014.15 1014.15 1014.06 1013.90 1013.69 1013.42 1013.11 1012.74 1012.32 1011.83 1011.27 1010.65
1009.26 1010.03 1010.82 1011.61 1012.34 1012.94 1013.38 1013.59 1013.57 1013.29 1012.80 1012.14 1011.36 1010.53 1009.72 1009.00 1008.42 1008.01 1007.80 1007.79 1007.98 1008.35 1008.87 1009.51 1010.23 1010.98 1011.72 1012.41 1013.02 1013.51 1013.87 1014.10 1014.20 1014.18 1014.07 1013.88 1013.63 1013.32 1012.97 1012.56 1012.10 1011.57 1010.98 1010.33
1009.30 1010.14 1010.96 1011.72 1012.37 1012.86 1013.16 1013.24 1013.09 1012.74 1012.21 1011.55 1010.82 1010.07 1009.36 1008.74 1008.24 1007.89 1007.72 1007.72 1007.89 1008.23 1008.73 1009.34 1010.04 1010.80 1011.55 1012.27 1012.91 1013.43 1013.82 1014.07 1014.18 1014.17 1014.06 1013.86 1013.59 1013.26 1012.88 1012.44 1011.93 1011.36 1010.73 1010.05
1009.31 1010.18 1010.99 1011.69 1012.23 1012.58 1012.71 1012.63 1012.35 1011.90 1011.33 1010.69 1010.03 1009.39 1008.81 1008.33 1007.96 1007.73 1007.64 1007.69 1007.89 1008.23 1008.70 1009.29 1009.96 1010.68 1011.42 1012.12 1012.76 1013.30 1013.71 1013.97 1014.11 1014.12 1014.02 1013.84 1013.57 1013.24 1012.84 1012.36 1011.82 1011.21 1010.53 1009.80
1009.23 1010.10 1010.85 1011.45 1011.86 1012.04 1012.00 1011.75 1011.33 1010.79 1010.19 1009.57 1008.99 1008.48 1008.07 1007.77 1007.59 1007.52 1007.56 1007.71 1007.97 1008.33 1008.79 1009.35 1009.98 1010.65 1011.34 1012.01 1012.62 1013.14 1013.55 1013.83 1013.99 1014.03 1013.96 1013.80 1013.55 1013.23 1012.82 1012.33 1011.75 1011.09 1010.36 1009.59
1009.03 1009.83 1010.50 1010.97 1011.22 1011.23 1011.02 1010.61 1010.07 1009.46 1008.84 1008.27 1007.79 1007.43 1007.21 1007.12 1007.14 1007.27 1007.47 1007.76 1008.10 1008.52 1008.99 1009.52 1010.11 1010.72 1011.35 1011.95 1012.51 1013.00 1013.39 1013.67 1013.84 1013.91 1013.87 1013.74 1013.52 1013.21 1012.80 1012.29 1011.69 1011.00 1010.23 1009.41
1008.65 1009.35 1009.89 1010.21 1010.31 1010.16 1009.80 1009.27 1008.65 1008.00 1007.40 1006.90 1006.54 1006.35 1006.32 1006.44 1006.68 1007.01 1007.41 1007.84 1008.29 1008.77 1009.27 1009.79 1010.33 1010.89 1011.44 1011.97 1012.46 1012.90 1013.25 1013.52 1013.69 1013.77 1013.75 1013.65 1013.45 1013.15 1012.75 1012.24 1011.63 1010.91 1010.12 1009.28
1008.07 1008.63 1009.02 1009.20 1009.15 1008.88 1008.42 1007.83 1007.18 1006.55 1006.01 1005.61 1005.39 1005.36 1005.53 1005.85 1006.30 1006.82 1007.38 1007.95 1008.52 1009.07 1009.60 1010.11 1010.62 1011.12 1011.60 1012.05 1012.47 1012.84 1013.15 1013.38 1013.54 1013.61 1013.60 1013.51 1013.32 1013.03 1012.64 1012.13 1011.52 1010.81 1010.01 1009.16
1007.28 1007.67 1007.91 1007.96 1007.81 1007.48 1006.99 1006.41 1005.80 1005.25 1004.81 1004.55 1004.48 1004.62 1004.95 1005.44 1006.05 1006.73 1007.43 1008.11 1008.77 1009.37 1009.93 1010.44 1010.92 1011.37 1011.78 1012.17 1012.52 1012.82 1013.07 1013.25 1013.38 1013.43 1013.41 1013.30 1013.11 1012.83 1012.44 1011.94 1011.34 1010.65 1009.88 1009.06
1006.27 1006.50 1006.61 1006.56 1006.37 1006.04 1005.60 1005.11 1004.62 1004.21 1003.93 1003.82 1003.91 1004.20 1004.67 1005.29 1006.01 1006.78 1007.56 1008.32 1009.02 1009.66 1010.23 1010.73 1011.18 1011.58 1011.94 1012.26 1012.54 1012.78 1012.97 1013.10 1013.18 1013.19 1013.14 1013.01 1012.81 1012.52 1012.13 1011.65 1011.08 1010.43 1009.70 1008.93
1005.09 1005.18 1005.18 1005.09 1004.91 1004.65 1004.34 1004.01 1003.72 1003.51 1003.42 1003.50 1003.74 1004.16 1004.73 1005.42 1006.19 1007.00 1007.80 1008.56 1009.26 1009.90 1010.45 1010.93 1011.35 1011.72 1012.03 1012.29 1012.52 1012.69 1012.82 1012.89 1012.92 1012.88 1012.79 1012.63 1012.40 1012.10 1011.72 1011.26 1010.73 1010.12 1009.46 1008.76
1003.79 1003.76 1003.71 1003.63 1003.52 1003.40 1003.27 1003.17 1003.13 1003.16 1003.30 1003.57 1003.96 1004.48 1005.11 1005.82 1006.59 1007.36 1008.12 1008.83 1009.49 1010.07 1010.58 1011.03 1011.41 1011.73 1012.00 1012.21 1012.39 1012.51 1012.58 1012.60 1012.57 1012.48 1012.34 1012.15 1011.90 1011.58 1011.21 1010.77 1010.28 1009.74 1009.15 1008.52
1002.46 1002.37 1002.31 1002.28 1002.30 1002.36 1002.47 1002.64 1002.86 1003.16 1003.53 1003.98 1004.51 1005.11 1005.76 1006.45 1007.15 1007.84 1008.50 1009.12 1009.68 1010.18 1010.62 1011.01 1011.33 1011.61 1011.83 1012.00 1012.13 1012.21 1012.23 1012.20 1012.12 1011.99 1011.81 1011.59 1011.31 1010.99 1010.63 1010.22 1009.77 1009.29 1008.77 1008.21
1001.24 1001.13 1001.10 1001.17 1001.34 1001.61 1001.97 1002.41 1002.91 1003.46 1004.05 1004.67 1005.30 1005.94 1006.59 1007.21 1007.82 1008.39 1008.91 1009.40 1009.84 1010.23 1010.58 1010.88 1011.14 1011.36 1011.54 1011.67 1011.75 1011.78 1011.77 1011.70 1011.58 1011.42 1011.21 1010.97 1010.69 1010.38 1010.03 1009.65 1009.25 1008.81 1008.35 1007.84
1000.27 1000.18 1000.22 1000.41 1000.74 1001.22 1001.81 1002.49 1003.23 1004.00 1004.77 1005.52 1006.23 1006.89 1007.49 1008.04 1008.52 1008.96 1009.34 1009.67 1009.98 1010.24 1010.48 1010.69 1010.87 1011.02 1011.14 1011.22 1011.26 1011.26 1011.21 1011.11 1010.97 1010.80 1010.59 1010.34 1010.07 1009.78 1009.46 1009.11 1008.75 1008.35 1007.92 1007.45
Thickness
5624 5617 5614 5619 5619 5619 5619 5617 5619 5625 5624 5615 5615 5621 5629 5630 5624 5619 5616 5613 5609 5607 5606 5604 5603 5601 5599 5597 5595 5594 5593 5592 5591 5591 5590 5591 5593 5597 5601 5605 5609 5611 5613 5616
5615 5611 5618 5620 5618 5615 5614 5611 5615 5620 5620 5612 5612 5616 5626 5626 5621 5615 5611 5607 5603 5600 5598 5596 5595 5592 5590 5587 5586 5585 5583 5582 5581 5580 5580 5582 5584 5587 5591 5595 5598 5601 5603 5605
5612 5614 5617 5614 5611 5609 5610 5606 5606 5605 5608 5611 5605 5611 5622 5621 5617 5611 5607 5602 5598 5593 5590 5588 5586 5583 5581 5579 5578 5577 5575 5574 5573 5571 5572 5573 5575 5578 5581 5584 5587 5590 5592 5594
5610 5611 5610 5608 5606 5603 5601 5605 5601 5597 5589 5593 5598 5587 5613 5611 5605 5602 5598 5593 5589 5586 5584 5581 5579 5576 5573 5571 5570 5568 5566 5565 5564 5563 5563 5564 5565 5568 5571 5573 5576 5579 5582 5584
5604 5604 5602 5601 5602 5599 5596 5596 5593 5591 5586 5582 5591 5578 5600 5604 5595 5593 5589 5586 5583 5580 5578 5575 5572 5569 5567 5564 5561 5560 5559 5557 5556 5555 5555 5555 5557 5559 5561 5563 5565 5568 5571 5573
5597 5599 5597 5597 5596 5595 5592 5590 5589 5586 5579 5574 5591 5582 5592 5594 5591 5588 5584 5580 5578 5575 5572 5569 5566 5563 5560 5557 5555 5553 5552 5551 5550 5549 5548 5548 5548 5549 5550 5552 5555 5558 5560 5563
5592 5592 5591 5590 5586 5586 5583 5577 5574 5572 5570 5580 5595 5583 5586 5598 5594 5588 5581 5575 5573 5570 5567 5563 5560 5557 5554 5552 5550 5549 5547 5546 5544 5543 5542 5541 5541 5541 5541 5542 5545 5548 5551 5553
5584 5584 5585 5583 5581 5577 5577 5575 5564 5562 5571 5581 5583 5577 5591 5597 5592 5587 5581 5574 5570 5566 5562 5559 5555 5551 5550 5549 5547 5545 5543 5541 5540 5538 5536 5535 5535 5533 5533 5535 5537 5540 5542 5543
5580 5578 5579 5578 5577 5574 5574 5567 5567 5557 5559 5556 5574 5591 5592 5591 5584 5579 5575 5570 5566 5562 5558 5554 5551 5549 5548 5546 5545 5542 5540 5538 5536 5533 5531 5530 5529 5527 5526 5527 5529 5530 5531 5533
5574 5566 5570 5567 5565 5563 5563 5565 5554 5548 5547 5552 5574 5582 5579 5577 5574 5573 5569 5565 5561 5558 5554 5551 5549 5547 5546 5545 5543 5540 5538 5535 5532 5529 5527 5526 5524 5521 5520 5519 5520 5521 5523 5524
5564 5555 5557 5557 5558 5559 5554 5554 5552 5547 5546 5542 5551 5570 5587 5578 5574 5569 5565 5562 5558 5554 5551 5548 5547 5546 5545 5543 5540 5537 5534 5531 5528 5525 5523 5521 5518 5516 5514 5513 5513 5514 5514 5515
5555 5550 5547 5555 5558 5557 5557 5555 5547 5535 5536 5539 5537 5557 5585 5579 5573 5568 5562 5560 5557 5552 5548 5546 5544 5543 5541 5539 5537 5534 5531 5528 5525 5522 5519 5516 5514 5511 5509 5507 5507 5507 5507 5508
5545 5535 5537 5543 5540 5539 5542 5547 5545 5537 5531 5528 5530 5553 5577 5572 5568 5563 5558 5555 5553 5549 5547 5544 5541 5540 5538 5535 5534 5532 5529 5526 5522 5519 5515 5512 5508 5505 5503 5502 5501 5500 5500 5501
5537 5524 5532 5543 5547 5534 5530 5535 5534 5526 5516 5526 5540 5555 5563 5561 5557 5556 5554 5552 5549 5547 5544 5541 5537 5536 5534 5532 5530 5528 5525 5522 5519 5514 5510 5506 5503 5500 5498 5497 5496 5495 5495 5495
5524 5517 5526 5535 5542 5537 5534 5532 5530 5523 5525 5525 5543 5549 5556 5555 5552 5551 5550 5548 5546 5543 5540 5537 5533 5531 5530 5528 5526 5524 5521 5518 5515 5510 5505 5501 5498 5495 5492 5490 5489 5489 5489 5489
5512 5510 5516 5522 5534 5534 5531 5535 5533 5529 5530 5532 5536 5543 5554 5551 5548 5546 5544 5543 5539 5537 5535 5532 5530 5527 5525 5523 5521 5519 5516 5514 5510 5505 5500 5496 5493 5490 5487 5485 5483 5482 5482 5482
5499 5498 5500 5511 5524 5521 5520 5540 5536 5533 5535 5532 5529 5541 5546 5543 5541 5538 5538 5536 5533 5530 5528 5526 5523 5520 5519 5517 5515 5512 5510 5508 5503 5499 5495 5491 5488 5484 5482 5481 5478 5476 5475 5475
5492 5490 5492 5499 5503 5498 5540 5550 5546 5539 5539 5538 5538 5541 5541 5538 5536 5535 5533 5529 5526 5524 5521 5519 5516 5515 5513 5511 5509 5507 5505 5501 5497 5493 5489 5485 5482 5478 5476 5474 5472 5471 5470 5469
5494 5487 5488 5491 5494 5510 5535 5541 5538 5530 5531 5539 5536 5537 5536 5532 5528 5528 5528 5525 5520 5517 5515 5512 5510 5508 5506 5504 5502 5500 5497 5494 5490 5486 5482 5479 5476 5472 5470 5468 5467 5466 5464 5463
5485 5482 5480 5485 5488 5502 5533 5535 5535 5528 5519 5535 5533 5530 5527 5521 5509 5516 5520 5518 5514 5511 5508 5505 5503 5502 5499 5496 5494 5492 5489 5486 5482 5479 5476 5473 5469 5466 5464 5462 5461 5460 5458 5457
5470 5470 5472 5480 5485 5504 5526 5524 5522 5510 5517 5531 5528 5524 5519 5512 5509 5511 5511 5508 5505 5503 5501 5499 5496 5493 5491 5489 5486 5483 5480 5477 5474 5472 5469 5466 5462 5459 5457 5456 5455 5453 5452 5451
5472 5471 5472 5476 5479 5498 5517 5511 5508 5513 5522 5523 5520 5516 5512 5509 5507 5505 5502 5500 5497 5494 5493 5491 5487 5484 5482 5481 5478 5474 5471 5469 5467 5464 5461 5459 5456 5453 5452 5449 5448 5447 5445 5444
5478 5484 5486 5488 5501 5515 5512 5510 5512 5514 5512 5512 5508 5507 5503 5499 5496 5495 5493 5490 5488 5486 5484 5482 5479 5476 5474 5472 5469 5466 5463 5461 5459 5456 5453 5450 5449 5447 5445 5443 5442 5441 5439 5438
5475 5481 5481 5485 5499 5507 5505 5506 5505 5504 5502 5501 5499 5496 5493 5489 5486 5484 5483 5481 5479 5477 5475 5473 5470 5467 5465 5463 5461 5458 5455 5452 5450 5447 5444 5442 5440 5439 5438 5436 5435 5434 5432 5431
5469 5467 5468 5473 5489 5493 5496 5495 5495 5493 5491 5489 5487 5485 5482 5479 5476 5474 5472 5471 5469 5467 5465 5463 5461 5458 5456 5454 5452 5449 5446 5443 5440 5438 5436 5434 5432 5431 5430 5429 5427 5426 5426 5424
5463 5462 5462 5470 5480 5479 5482 5483 5484 5481 5479 5477 5475 5473 5471 5468 5466 5464 5462 5460 5459 5457 5455 5453 5452 5450 5448 5446 5443 5440 5437 5434 5431 5429 5427 5424 5423 5422 5421 5421 5421 5421 5420 5421